Вернуться в каталог

STARLINK-33888

АктивенСвязьVLEO
NORAD 63860·PAYLOAD·🇺🇸 United States

Запущен May 7, 2025 с Cape Canaveral Space Force Station

Loading…

Ближайшие Пролёты (ближайшие 24 часа)

TLE

СвежийSource: CelesTrak SupGP

Эпоха: Sep 15, 2026, 03:01 UTC

1 63860C 25093AA  26258.12618056 -.00003294  00000+0 -11931-3 0  2589
2 63860  43.0028  88.1196 0001999 274.4775  67.2140 15.27580428    12

Отслеживайте STARLINK-33888 в реальном времени с AllMySat

Download on the App Store